Location: Unspecified
(60.3052°N, 5.3304°E)
Time: 02:44:04
(UTC+02:00)

ISS - Pass Details

Date: 28 September 2021
Orbit: 417 x 423 km, 51.6° (Epoch: 22 October)

Event Time Altitude Azimuth Distance (km) Brightness Sun altitude
Rises 20:58:37 0° 257° (WSW) 2,366 1.1 -12.9°
Reaches altitude 10° 21:01:16 10° 235° (SW) 1,502 -0.5 -13.2°
Maximum altitude 21:03:25 16° 195° (SSW) 1,190 -1.5 -13.5°
Enters shadow 21:04:57 12° 164° (SSE) 1,360 -1.5 -13.7°
